Home   Weather   Preveza   Past weeks

Flag for Greece Past Weather in Preveza, Greece — Yesterday and Last 2 Weeks

Now
46 °F

Rain. Passing clouds.


Feels Like: 40 °F
Forecast: 43 / 54 °F
Wind: 14 mph from East

Location: Aktion Airport

Current Time: Jan 19, 2017 at 7:21:31 pm

Latest Report: Jan 19, 2017 at 6:50 pm


Visibility: N/A

Pressure: 30.24 "Hg

Humidity: 87%

Dew Point: 43 °F

Location of PrevezaLocation

Past Weather in Preveza — Graph

°F

Preveza Temperature Yesterday

Maximum temperature yesterday: 48 °F (at 1:50 am)
Minimum temperature yesterday: 45 °F (at 11:50 pm)
Average temperature yesterday: 47 °F

High & Low Weather Summary for the Past Weeks

 TemperatureHumidityPressure
High57 °F (Jan 5, 2:20 pm)94% (Jan 4, 6:20 pm)30.24 "Hg (Jan 4, 6:20 pm)
Low30 °F (Jan 8, 4:50 am)29% (Jan 9, 2:50 pm)29.47 "Hg (Jan 5, 6:20 pm)
Average43 °F73%29.90 "Hg
* Reported Jan 4 5:20 pm — Jan 19 5:50 pm, Preveza, Weather by CustomWeather, © 2017

Note: Actual official high and low records may vary slightly from our data, if they occured in-between our weather recording intervals... More about our weather records

Advertising

Preveza Weather History for the Previous 24 Hours

Scroll right to see more
 ConditionsComfort  
Time TempWeatherWind HumidityBarometerVisibility
5:50 pm
Thu, Jan 19
46 °FRain. Passing clouds.9 mph87%30.24 "HgN/A
4:50 pm50 °FPartly sunny.12 mph82%30.18 "HgN/A
3:50 pm50 °FPartly sunny.12 mph82%30.18 "HgN/A
3:20 pm50 °FPartly sunny.12 mph82%30.18 "HgN/A
2:20 pm48 °FMostly cloudy.13 mph87%30.18 "HgN/A
1:50 pm48 °FMostly cloudy.13 mph87%30.18 "HgN/A
1:20 pm48 °FMostly cloudy.12 mph82%30.18 "HgN/A
12:50 pm48 °FMostly cloudy.9 mph82%30.18 "HgN/A
12:20 pm46 °FMostly cloudy.8 mph87%30.21 "HgN/A
11:50 am46 °FLight rain. Mostly cloudy.7 mph87%30.21 "HgN/A
11:20 am48 °FLight rain. Partly sunny.6 mph82%30.18 "HgN/A
10:50 am50 °FPartly sunny.7 mph76%30.18 "HgN/A
10:20 am48 °FPartly sunny.8 mph82%30.15 "HgN/A
9:50 am48 °FPartly sunny.10 mph82%30.15 "HgN/A
9:20 am46 °FPartly sunny.12 mph87%30.12 "HgN/A
8:50 am46 °FPartly sunny.9 mph87%30.12 "HgN/A
8:20 am46 °FLight rain. Partly sunny.8 mph87%30.15 "HgN/A
7:50 am45 °FLight rain. Mostly cloudy.8 mph93%30.12 "HgN/A
7:20 am45 °FRain. Mostly cloudy.10 mph93%30.12 "Hg4 mi
6:50 am45 °FRain. Mostly cloudy.10 mph93%30.12 "Hg5 mi
6:20 am46 °FThunderstorms. Mostly cloudy.7 mph87%30.09 "Hg5 mi
5:50 am46 °FThunderstorms. Mostly cloudy.7 mph87%30.09 "Hg5 mi
5:20 am46 °FThunderstorms. Partly cloudy.9 mph87%30.09 "Hg6 mi
4:50 am46 °FRain. Partly cloudy.8 mph87%30.07 "HgN/A
3:50 am46 °FLight rain. Partly cloudy.8 mph87%30.07 "HgN/A
2:50 am46 °FPassing clouds.7 mph87%30.04 "HgN/A
1:50 am46 °FPassing clouds.7 mph87%30.04 "HgN/A
12:50 am46 °FPassing clouds.No wind87%30.04 "HgN/A
11:50 pm
Wed, Jan 18
45 °FPartly cloudy.No wind81%30.04 "HgN/A
10:50 pm46 °FPartly cloudy.No wind87%30.01 "HgN/A
9:50 pm48 °FMostly cloudy.6 mph82%29.98 "HgN/A
8:50 pm48 °FRain. Mostly cloudy.6 mph87%29.95 "HgN/A
7:50 pm48 °FRain. Mostly cloudy.15 mph82%29.92 "HgN/A
7:20 pm48 °FRain. Mostly cloudy.17 mph82%29.92 "HgN/A
Weather by CustomWeather, © 2017

See weather overviewHow to use our weather pages